SCP
0 0 0 0 0 0 0 0 0 0 0 0 0 0 0 0 0 0 0 0 0 0 0 0 0 0 0 0 0 0 0 2 3 5 5 4 4 3 2 2 1 1 0 0
0 0 0 0 0 0 0 0 0 0 0 0 0 0 -0 0 0 0 0 0 0 0 0 0 0 0 0 0 0 0 0 1 2 3 5 5 4 3 3 2 2 1 0 0
0 0 0 0 0 0 0 0 0 0 0 0 0 -0 0 0 0 0 0 0 0 0 0 0 0 0 0 0 0 0 0 0 1 2 5 4 4 3 5 3 2 1 1 1
0 0 0 0 0 0 0 -0 0 0 0 0 -0 -0 0 -0 0 0 0 0 0 0 0 0 0 0 0 0 0 0 0 0 1 1 4 3 4 3 3 3 2 2 1 1
0 0 0 0 0 0 0 -0 0 -0 0 0 -0 0 -0 -0 0 0 0 0 0 0 0 0 0 0 0 0 0 0 0 0 1 1 3 4 4 6 5 4 5 2 2 2
0 0 0 0 0 0 0 0 -0 -0 0 0 -0 -0 -0 0 0 0 0 0 0 0 0 0 0 0 0 0 0 0 0 0 0 0 1 2 3 3 2 5 6 1 1 4
0 0 0 0 0 0 0 0 0 0 -0 0 0 0 0 0 0 0 0 0 0 0 0 0 0 0 0 0 0 0 0 0 0 0 1 2 3 3 2 7 5 3 3 5
0 0 0 0 0 0 0 0 0 0 0 0 0 0 0 0 0 0 0 0 0 0 -0 0 0 0 0 0 0 0 0 0 0 -0 1 2 3 5 5 3 5 7 9 6
0 0 0 0 0 0 0 0 0 0 0 -0 -0 -0 0 0 0 0 0 0 0 0 0 0 0 0 0 0 0 0 0 0 0 -0 0 2 2 3 6 6 5 3 6 1
0 0 0 0 0 0 0 -0 0 0 0 -0 -0 0 0 0 0 0 0 0 0 0 0 0 0 0 0 0 0 0 0 0 0 0 -0 1 2 1 4 4 5 4 2 0
0 0 0 0 0 0 0 0 0 0 0 0 -0 0 0 0 0 0 0 0 0 0 0 0 0 0 0 0 0 0 0 0 0 0 0 0 1 2 2 5 3 1 0 0
0 0 0 0 0 0 0 0 0 0 0 0 0 -0 0 0 -0 0 0 0 0 0 0 0 0 0 0 0 0 0 0 0 0 0 0 0 1 2 2 2 1 0 0 0
0 0 0 0 0 0 0 0 0 0 0 -0 -0 -0 0 0 0 0 0 0 0 0 0 0 0 0 0 0 0 0 0 0 0 0 0 0 1 1 2 0 0 0 0 0
0 0 0 0 0 -0 -0 -0 0 -0 0 0 -0 -0 -0 0 0 0 0 0 0 0 0 0 0 0 0 0 0 0 0 0 0 0 0 1 1 1 0 0 0 0 0 0
0 0 0 0 0 0 0 -0 -0 -0 -0 -0 -0 -0 -0 0 0 0 0 0 0 0 0 0 0 0 0 0 0 0 0 0 0 1 1 1 1 0 0 0 0 0 0 0
0 0 0 0 0 0 0 -0 -0 -0 -0 -0 0 0 0 0 0 0 0 0 0 0 0 0 0 0 0 0 0 1 0 0 0 0 1 1 1 0 0 0 0 0 0 0
0 0 0 0 0 0 -0 -0 -0 0 0 0 0 0 0 0 0 0 0 0 0 0 0 0 0 0 0 0 0 0 0 0 0 1 1 1 0 0 0 0 0 0 0 0
0 0 0 0 0 0 0 0 0 0 0 0 0 0 0 0 0 0 0 0 0 0 0 0 0 0 0 0 0 0 1 0 1 1 1 1 0 0 0 0 0 0 0 0
0 0 0 0 0 -0 0 0 0 0 0 -0 0 0 0 0 0 0 0 0 0 0 0 0 0 0 0 0 0 0 0 0 1 1 1 0 0 0 0 0 0 0 0 0
0 0 0 0 0 -0 0 0 0 0 0 0 0 0 -0 0 -0 0 0 0 0 -0 0 0 0 0 0 0 0 1 0 1 1 1 0 0 0 0 0 0 0 0 0 0
0 0 0 0 0 -0 0 0 0 0 0 -0 -0 -0 -0 -0 -0 -0 0 0 0 0 0 0 0 0 0 0 0 1 1 0 0 0 0 0 0 0 0 0 0 0 0 0
0 0 -0 0 -0 -0 0 -0 0 0 -0 -0 -0 -0 -0 -0 -0 0 0 -0 0 0 -0 0 0 0 0 0 0 1 0 0 0 0 0 0 0 0 0 0 0 0 0 -0
0 0 0 0 -0 -0 -0 0 -0 -0 -0 0 -0 0 0 0 -0 -0 -0 -0 -0 -0 0 0 0 0 0 0 0 0 0 0 0 0 0 0 0 0 0 0 0 0 0 0
0 0 0 -0 -0 -0 -0 -0 -0 -0 -0 -0 0 0 0 -0 -0 -0 -0 -0 -0 -0 0 0 0 0 0 0 0 0 0 0 0 0 0 0 0 0 0 0 0 0 -0 -0
0 0 0 0 0 -0 -0 -0 -0 0 0 -0 0 0 -0 -0 -0 -0 0 0 -0 0 0 0 0 0 0 0 0 0 0 0 0 0 0 0 0 0 0 0 0 0 -0 0
0 0 0 0 -0 -0 -0 0 0 0 -0 -0 -0 -0 -0 -0 -0 -0 0 0 -0 -0 0 0 0 0 0 0 0 0 0 0 0 0 0 0 0 0 0 0 -0 -0 -0 -0
Wind_Speed_500mb
25 20 27 39 38 41 42 41 45 45 45 47 45 45 49 51 55 53 57 61 58 55 50 47 48 44 46 42 36 36 44 48 46 57 65 68 68 59 50 46 45 44 42 40
27 32 30 28 32 38 42 46 49 52 49 34 42 52 54 53 49 55 54 57 58 55 50 47 48 47 47 46 39 36 38 48 54 46 64 70 65 57 53 47 50 48 44 40
27 38 35 32 36 38 43 45 48 46 45 44 43 59 53 32 14 20 33 40 48 49 50 46 46 51 48 48 45 40 36 40 46 52 52 67 62 58 58 52 47 47 47 42
22 15 27 33 35 36 44 40 44 44 38 37 40 36 42 42 33 18 22 26 35 37 42 42 46 50 50 50 45 39 36 37 43 45 63 65 70 68 62 57 48 49 52 46
29 35 36 36 32 26 37 35 34 39 42 43 45 27 35 28 27 24 9 9 20 28 27 35 42 45 49 49 47 44 35 36 40 48 58 64 73 69 59 59 55 52 55 50
33 34 21 20 26 29 19 31 41 43 40 36 46 41 34 18 8 4 18 9 14 15 14 25 32 41 47 46 46 44 38 36 37 41 46 64 67 78 63 67 62 51 49 51
35 20 11 13 25 25 20 32 21 17 22 29 22 10 22 6 17 15 18 18 15 16 17 16 17 31 39 47 47 44 42 39 37 40 45 61 64 66 64 66 58 60 54 52
18 28 11 15 29 35 39 30 19 29 24 37 27 18 4 3 2 7 12 18 24 12 22 10 12 14 22 35 41 42 42 39 43 40 44 50 70 65 68 68 67 67 69 63
26 15 44 43 19 14 12 16 15 21 40 34 32 40 35 13 15 14 1 11 5 4 5 7 6 9 16 18 17 24 32 39 43 40 41 51 58 67 73 74 76 77 58 69
21 42 24 22 11 31 29 29 14 10 11 25 25 11 7 4 4 8 8 0 2 7 9 8 8 11 12 18 23 24 26 35 40 40 37 42 55 68 75 74 83 79 76 68
32 28 31 38 38 34 17 23 26 22 20 15 27 14 5 7 25 18 13 2 15 17 17 18 22 25 22 24 24 25 22 28 40 37 36 40 47 71 71 77 75 82 83 84
21 14 33 47 49 41 37 38 32 13 31 26 24 30 39 31 19 13 19 14 23 26 35 35 36 41 36 32 27 26 24 24 33 40 36 38 43 57 76 77 85 88 93 64
16 9 22 22 5 8 13 18 24 32 26 29 35 32 8 8 26 25 43 49 47 39 29 34 39 41 41 41 34 30 27 26 26 38 37 32 38 44 66 87 81 87 78 69
22 14 33 31 43 46 45 48 42 32 12 31 38 58 47 51 48 41 47 33 50 38 36 36 40 40 43 42 40 33 28 24 25 33 34 30 29 39 47 103 104 94 84 73
16 15 32 42 51 52 56 55 50 46 48 42 49 56 49 39 38 45 40 33 39 42 44 38 40 42 40 41 38 35 30 24 24 29 28 26 30 38 54 10 57 91 88 76
7 13 30 47 50 54 52 54 51 54 50 45 44 44 35 14 28 26 40 49 47 51 52 44 45 48 49 44 40 35 30 23 21 27 25 25 23 38 37 54 65 89 86 81
11 7 12 39 40 43 40 40 28 30 29 30 34 42 37 36 36 42 48 50 53 56 55 60 58 53 53 43 43 41 31 22 21 24 35 39 46 55 81 84 78 77 87 84
14 9 7 18 41 23 18 33 27 22 29 28 41 45 40 36 35 45 48 57 63 63 64 52 41 41 48 39 41 39 31 23 23 26 43 52 64 71 68 62 63 79 79 79
26 15 8 9 17 34 22 21 20 28 37 51 34 21 29 47 59 67 56 48 51 55 48 52 57 52 38 39 34 38 33 26 22 50 55 61 67 77 72 77 69 82 88 80
27 31 16 14 22 22 24 22 27 39 41 7 22 37 48 48 26 39 38 45 62 70 73 80 65 55 52 50 43 31 35 25 40 61 61 73 86 89 90 71 81 86 85 84
14 18 24 23 17 20 12 35 41 19 27 70 61 58 62 37 48 83 84 89 81 80 79 63 52 57 56 49 46 31 32 37 56 67 71 78 84 81 83 82 86 83 89 82
19 15 22 14 21 15 50 57 9 26 54 55 67 69 66 69 84 92 90 88 88 86 74 58 54 57 52 48 44 35 46 46 67 91 91 98 84 91 99 90 90 86 86 80
12 9 10 10 20 55 61 36 59 58 64 76 69 72 76 81 89 95 100 104 101 96 87 70 62 53 49 44 44 57 53 65 81 90 92 87 89 90 69 88 94 86 74 72
22 25 14 30 27 37 64 60 48 65 65 62 77 77 79 84 95 98 92 63 34 28 57 59 62 54 51 50 54 71 76 88 90 94 94 94 108 109 85 92 85 81 71 60
27 28 17 34 44 49 40 42 54 61 62 78 82 75 75 74 61 61 27 42 26 37 48 57 57 57 55 76 84 77 94 100 105 108 107 106 110 114 92 70 65 68 55 53
24 10 9 11 36 17 35 56 56 56 74 78 83 80 59 44 35 28 30 46 67 79 78 79 72 74 90 88 92 99 100 101 111 124 122 129 125 114 89 88 87 71 68 60
Wind_Direction_500mb
294 293 285 298 295 294 291 283 284 285 284 277 276 277 277 277 273 265 261 262 259 253 251 245 241 241 232 231 227 230 226 219 221 222 218 211 204 202 201 201 195 200 195 203
273 261 277 311 303 289 286 284 278 275 278 292 296 292 286 277 265 259 260 259 256 255 245 239 235 233 233 233 228 234 231 228 219 229 225 218 210 203 202 200 198 197 203 203
299 292 305 305 301 292 280 278 281 291 301 298 281 267 262 253 223 254 249 256 256 257 252 240 230 228 231 230 230 230 232 240 241 223 237 220 208 206 202 197 198 193 196 191
288 282 302 304 294 293 284 291 300 300 298 281 298 297 291 279 275 252 259 258 256 253 249 248 239 227 226 229 231 228 232 233 230 233 229 219 213 204 198 196 195 191 191 187
284 316 310 300 301 307 294 295 294 289 275 281 274 266 273 255 228 199 146 275 289 268 255 255 237 236 225 230 233 230 229 234 229 226 232 221 215 205 197 196 194 190 189 189
268 295 298 310 306 273 280 281 269 264 261 259 264 251 258 263 95 159 192 256 287 270 303 275 247 234 233 229 231 231 226 232 233 233 228 223 217 215 204 192 189 186 180 177
312 302 320 286 290 296 246 285 313 289 259 232 358 310 265 329 239 328 320 310 276 289 258 270 249 240 233 231 233 234 231 232 236 235 228 223 214 211 207 195 186 178 178 181
310 311 346 345 295 295 288 279 267 290 307 315 309 267 124 323 251 282 306 291 270 249 274 264 295 279 242 227 235 237 243 237 231 232 234 232 222 216 211 198 187 179 183 185
313 287 321 294 315 285 293 261 283 263 264 269 273 265 255 204 182 163 287 335 14 317 304 302 305 294 279 285 259 249 255 240 236 230 232 229 229 215 206 200 198 198 181 188
299 301 301 288 272 268 264 277 281 255 270 282 282 262 249 43 42 198 110 211 210 257 285 323 313 307 303 290 271 265 266 245 240 232 231 233 232 217 208 203 203 195 193 186
292 282 283 297 276 276 230 251 254 284 256 274 289 286 244 59 328 297 305 356 300 274 300 304 308 288 289 295 293 265 260 255 243 236 230 230 226 218 216 202 194 191 186 180
315 298 290 286 283 270 264 258 254 251 267 264 277 273 293 288 242 282 226 292 313 294 297 305 297 298 288 284 286 282 272 271 248 236 236 237 227 226 212 189 187 192 187 178
341 286 304 299 173 48 287 289 276 283 288 264 272 271 224 342 302 305 316 328 312 296 288 298 305 292 284 273 279 282 280 279 263 233 229 239 233 231 217 174 188 187 177 173
272 236 248 268 283 306 299 290 285 270 258 278 269 286 291 292 304 311 286 258 279 284 296 293 285 283 281 275 268 275 280 276 264 233 226 237 220 215 214 190 182 184 175 167
248 250 248 262 280 281 278 278 279 272 268 262 275 276 288 286 308 322 313 288 268 279 289 288 289 282 282 282 263 261 273 270 262 233 227 218 215 214 198 112 155 166 161 156
191 269 294 282 282 273 272 272 264 267 278 287 294 287 286 28 297 298 298 287 290 290 285 287 293 279 271 267 260 260 264 265 249 221 186 193 198 181 182 189 172 152 144 145
245 244 273 275 290 301 285 284 275 301 310 321 297 299 308 303 299 303 300 294 287 280 274 285 294 277 260 255 248 250 253 253 244 223 174 159 163 164 149 142 152 141 146 153
170 181 239 283 290 276 309 318 283 293 294 305 299 292 302 306 302 290 290 286 279 274 281 281 277 272 256 254 246 241 240 237 236 192 168 170 162 156 157 155 152 155 153 147
197 181 247 258 267 280 296 344 346 333 309 304 304 323 328 306 294 284 287 281 278 273 271 274 279 274 267 252 253 236 230 222 216 168 164 163 168 171 169 160 162 159 146 137
208 213 211 248 274 291 351 34 345 324 301 75 328 312 304 313 289 285 294 283 280 278 274 272 267 258 254 252 249 235 218 199 181 174 175 160 157 155 159 148 155 144 140 143
305 275 255 263 264 277 83 338 335 292 332 322 320 307 307 295 283 290 293 284 274 271 268 262 251 246 245 241 235 230 205 170 178 169 161 160 160 161 157 160 162 149 143 136
284 284 291 298 293 288 347 335 310 313 313 305 307 309 300 298 294 289 285 279 274 268 263 250 240 235 231 224 211 214 180 173 176 161 156 151 149 152 149 144 153 147 139 135
294 246 295 281 289 306 307 315 309 315 314 311 308 308 305 297 292 291 287 282 272 257 248 241 229 221 213 203 192 182 171 175 170 165 160 159 156 154 157 166 154 142 137 128
291 299 276 298 287 304 315 314 307 318 307 308 306 305 303 297 297 298 300 299 276 246 214 207 206 200 193 183 182 164 165 166 164 157 156 153 150 146 149 146 141 132 123 121
285 291 260 271 283 305 306 311 311 315 316 314 315 311 308 307 314 326 356 28 76 149 155 167 180 181 173 164 159 162 164 165 155 144 143 138 136 136 126 132 125 125 126 128
271 244 260 269 307 300 302 316 320 322 317 318 316 319 327 335 349 8 45 66 95 114 131 138 148 151 150 156 157 162 165 169 158 142 141 139 139 142 145 139 132 130 137 135
Wind_Speed_850mb
25 20 27 39 38 41 42 41 45 45 45 47 45 45 49 51 55 53 57 61 58 55 50 47 48 44 46 42 36 36 44 48 46 57 65 68 68 59 50 46 45 44 42 40
27 32 30 28 32 38 42 46 49 52 49 34 42 52 54 53 49 55 54 57 58 55 50 47 48 47 47 46 39 36 38 48 54 46 64 70 65 57 53 47 50 48 44 40
27 38 35 32 36 38 43 45 48 46 45 44 43 59 53 32 14 20 33 40 48 49 50 46 46 51 48 48 45 40 36 40 46 52 52 67 62 58 58 52 47 47 47 42
22 15 27 33 35 36 44 40 44 44 38 37 40 36 42 42 33 18 22 26 35 37 42 42 46 50 50 50 45 39 36 37 43 45 63 65 70 68 62 57 48 49 52 46
29 35 36 36 32 26 37 35 34 39 42 43 45 27 35 28 27 24 9 9 20 28 27 35 42 45 49 49 47 44 35 36 40 48 58 64 73 69 59 59 55 52 55 50
33 34 21 20 26 29 19 31 41 43 40 36 46 41 34 18 8 4 18 9 14 15 14 25 32 41 47 46 46 44 38 36 37 41 46 64 67 78 63 67 62 51 49 51
35 20 11 13 25 25 20 32 21 17 22 29 22 10 22 6 17 15 18 18 15 16 17 16 17 31 39 47 47 44 42 39 37 40 45 61 64 66 64 66 58 60 54 52
18 28 11 15 29 35 39 30 19 29 24 37 27 18 4 3 2 7 12 18 24 12 22 10 12 14 22 35 41 42 42 39 43 40 44 50 70 65 68 68 67 67 69 63
26 15 44 43 19 14 12 16 15 21 40 34 32 40 35 13 15 14 1 11 5 4 5 7 6 9 16 18 17 24 32 39 43 40 41 51 58 67 73 74 76 77 58 69
21 42 24 22 11 31 29 29 14 10 11 25 25 11 7 4 4 8 8 0 2 7 9 8 8 11 12 18 23 24 26 35 40 40 37 42 55 68 75 74 83 79 76 68
32 28 31 38 38 34 17 23 26 22 20 15 27 14 5 7 25 18 13 2 15 17 17 18 22 25 22 24 24 25 22 28 40 37 36 40 47 71 71 77 75 82 83 84
21 14 33 47 49 41 37 38 32 13 31 26 24 30 39 31 19 13 19 14 23 26 35 35 36 41 36 32 27 26 24 24 33 40 36 38 43 57 76 77 85 88 93 64
16 9 22 22 5 8 13 18 24 32 26 29 35 32 8 8 26 25 43 49 47 39 29 34 39 41 41 41 34 30 27 26 26 38 37 32 38 44 66 87 81 87 78 69
22 14 33 31 43 46 45 48 42 32 12 31 38 58 47 51 48 41 47 33 50 38 36 36 40 40 43 42 40 33 28 24 25 33 34 30 29 39 47 103 104 94 84 73
16 15 32 42 51 52 56 55 50 46 48 42 49 56 49 39 38 45 40 33 39 42 44 38 40 42 40 41 38 35 30 24 24 29 28 26 30 38 54 10 57 91 88 76
7 13 30 47 50 54 52 54 51 54 50 45 44 44 35 14 28 26 40 49 47 51 52 44 45 48 49 44 40 35 30 23 21 27 25 25 23 38 37 54 65 89 86 81
11 7 12 39 40 43 40 40 28 30 29 30 34 42 37 36 36 42 48 50 53 56 55 60 58 53 53 43 43 41 31 22 21 24 35 39 46 55 81 84 78 77 87 84
14 9 7 18 41 23 18 33 27 22 29 28 41 45 40 36 35 45 48 57 63 63 64 52 41 41 48 39 41 39 31 23 23 26 43 52 64 71 68 62 63 79 79 79
26 15 8 9 17 34 22 21 20 28 37 51 34 21 29 47 59 67 56 48 51 55 48 52 57 52 38 39 34 38 33 26 22 50 55 61 67 77 72 77 69 82 88 80
27 31 16 14 22 22 24 22 27 39 41 7 22 37 48 48 26 39 38 45 62 70 73 80 65 55 52 50 43 31 35 25 40 61 61 73 86 89 90 71 81 86 85 84
14 18 24 23 17 20 12 35 41 19 27 70 61 58 62 37 48 83 84 89 81 80 79 63 52 57 56 49 46 31 32 37 56 67 71 78 84 81 83 82 86 83 89 82
19 15 22 14 21 15 50 57 9 26 54 55 67 69 66 69 84 92 90 88 88 86 74 58 54 57 52 48 44 35 46 46 67 91 91 98 84 91 99 90 90 86 86 80
12 9 10 10 20 55 61 36 59 58 64 76 69 72 76 81 89 95 100 104 101 96 87 70 62 53 49 44 44 57 53 65 81 90 92 87 89 90 69 88 94 86 74 72
22 25 14 30 27 37 64 60 48 65 65 62 77 77 79 84 95 98 92 63 34 28 57 59 62 54 51 50 54 71 76 88 90 94 94 94 108 109 85 92 85 81 71 60
27 28 17 34 44 49 40 42 54 61 62 78 82 75 75 74 61 61 27 42 26 37 48 57 57 57 55 76 84 77 94 100 105 108 107 106 110 114 92 70 65 68 55 53
24 10 9 11 36 17 35 56 56 56 74 78 83 80 59 44 35 28 30 46 67 79 78 79 72 74 90 88 92 99 100 101 111 124 122 129 125 114 89 88 87 71 68 60
Wind_Direction_850mb
294 293 285 298 295 294 291 283 284 285 284 277 276 277 277 277 273 265 261 262 259 253 251 245 241 241 232 231 227 230 226 219 221 222 218 211 204 202 201 201 195 200 195 203
273 261 277 311 303 289 286 284 278 275 278 292 296 292 286 277 265 259 260 259 256 255 245 239 235 233 233 233 228 234 231 228 219 229 225 218 210 203 202 200 198 197 203 203
299 292 305 305 301 292 280 278 281 291 301 298 281 267 262 253 223 254 249 256 256 257 252 240 230 228 231 230 230 230 232 240 241 223 237 220 208 206 202 197 198 193 196 191
288 282 302 304 294 293 284 291 300 300 298 281 298 297 291 279 275 252 259 258 256 253 249 248 239 227 226 229 231 228 232 233 230 233 229 219 213 204 198 196 195 191 191 187
284 316 310 300 301 307 294 295 294 289 275 281 274 266 273 255 228 199 146 275 289 268 255 255 237 236 225 230 233 230 229 234 229 226 232 221 215 205 197 196 194 190 189 189
268 295 298 310 306 273 280 281 269 264 261 259 264 251 258 263 95 159 192 256 287 270 303 275 247 234 233 229 231 231 226 232 233 233 228 223 217 215 204 192 189 186 180 177
312 302 320 286 290 296 246 285 313 289 259 232 358 310 265 329 239 328 320 310 276 289 258 270 249 240 233 231 233 234 231 232 236 235 228 223 214 211 207 195 186 178 178 181
310 311 346 345 295 295 288 279 267 290 307 315 309 267 124 323 251 282 306 291 270 249 274 264 295 279 242 227 235 237 243 237 231 232 234 232 222 216 211 198 187 179 183 185
313 287 321 294 315 285 293 261 283 263 264 269 273 265 255 204 182 163 287 335 14 317 304 302 305 294 279 285 259 249 255 240 236 230 232 229 229 215 206 200 198 198 181 188
299 301 301 288 272 268 264 277 281 255 270 282 282 262 249 43 42 198 110 211 210 257 285 323 313 307 303 290 271 265 266 245 240 232 231 233 232 217 208 203 203 195 193 186
292 282 283 297 276 276 230 251 254 284 256 274 289 286 244 59 328 297 305 356 300 274 300 304 308 288 289 295 293 265 260 255 243 236 230 230 226 218 216 202 194 191 186 180
315 298 290 286 283 270 264 258 254 251 267 264 277 273 293 288 242 282 226 292 313 294 297 305 297 298 288 284 286 282 272 271 248 236 236 237 227 226 212 189 187 192 187 178
341 286 304 299 173 48 287 289 276 283 288 264 272 271 224 342 302 305 316 328 312 296 288 298 305 292 284 273 279 282 280 279 263 233 229 239 233 231 217 174 188 187 177 173
272 236 248 268 283 306 299 290 285 270 258 278 269 286 291 292 304 311 286 258 279 284 296 293 285 283 281 275 268 275 280 276 264 233 226 237 220 215 214 190 182 184 175 167
248 250 248 262 280 281 278 278 279 272 268 262 275 276 288 286 308 322 313 288 268 279 289 288 289 282 282 282 263 261 273 270 262 233 227 218 215 214 198 112 155 166 161 156
191 269 294 282 282 273 272 272 264 267 278 287 294 287 286 28 297 298 298 287 290 290 285 287 293 279 271 267 260 260 264 265 249 221 186 193 198 181 182 189 172 152 144 145
245 244 273 275 290 301 285 284 275 301 310 321 297 299 308 303 299 303 300 294 287 280 274 285 294 277 260 255 248 250 253 253 244 223 174 159 163 164 149 142 152 141 146 153
170 181 239 283 290 276 309 318 283 293 294 305 299 292 302 306 302 290 290 286 279 274 281 281 277 272 256 254 246 241 240 237 236 192 168 170 162 156 157 155 152 155 153 147
197 181 247 258 267 280 296 344 346 333 309 304 304 323 328 306 294 284 287 281 278 273 271 274 279 274 267 252 253 236 230 222 216 168 164 163 168 171 169 160 162 159 146 137
208 213 211 248 274 291 351 34 345 324 301 75 328 312 304 313 289 285 294 283 280 278 274 272 267 258 254 252 249 235 218 199 181 174 175 160 157 155 159 148 155 144 140 143
305 275 255 263 264 277 83 338 335 292 332 322 320 307 307 295 283 290 293 284 274 271 268 262 251 246 245 241 235 230 205 170 178 169 161 160 160 161 157 160 162 149 143 136
284 284 291 298 293 288 347 335 310 313 313 305 307 309 300 298 294 289 285 279 274 268 263 250 240 235 231 224 211 214 180 173 176 161 156 151 149 152 149 144 153 147 139 135
294 246 295 281 289 306 307 315 309 315 314 311 308 308 305 297 292 291 287 282 272 257 248 241 229 221 213 203 192 182 171 175 170 165 160 159 156 154 157 166 154 142 137 128
291 299 276 298 287 304 315 314 307 318 307 308 306 305 303 297 297 298 300 299 276 246 214 207 206 200 193 183 182 164 165 166 164 157 156 153 150 146 149 146 141 132 123 121
285 291 260 271 283 305 306 311 311 315 316 314 315 311 308 307 314 326 356 28 76 149 155 167 180 181 173 164 159 162 164 165 155 144 143 138 136 136 126 132 125 125 126 128
271 244 260 269 307 300 302 316 320 322 317 318 316 319 327 335 349 8 45 66 95 114 131 138 148 151 150 156 157 162 165 169 158 142 141 139 139 142 145 139 132 130 137 135